OBJECT AJ, 69012

Orbit data source: Space-Track

You're viewing an Uncataloged Satellite

Recently launched and/or uncataloged satellites may have evolving metadata. Metadata may include but not limited to: Owner, Maufacturer, Bus, Motor, and Mission.

OBJECT AJ, 69012 is a satellite in SSO that was launched on Sun, 03 May 2026 UTC launched from the Air Force Western Test Range (AFWTR). Unknown objects in Earth's orbit typically refer to objects detected orbiting the Earth but have not yet been identified or cataloged. These objects could be anything from previously untracked satellites, spent rocket stages, debris from satellite collisions, or even natural meteoroids temporarily captured by Earth's gravity.

Loading next visibility...
Identifier
69012, 2026-100AJ
Orbit
SSO
Country
Flag of TBDTBD
Related business
None
Manufacturer
Unknown
Mission
Operational spacecraft
Bus & Motor
Unknown
Mass
Unknown
Launch date (UTC)
2026-05-03 (1 week ago)
Launch vehicle
Unknown
Launch site
Air Force Western Test Range (AFWTR)
Object type
Unknown
Shape & HBR
Unknown
Radar Cross Section
RCS unknown

Expand to show TLE details & history
Last TLE update: 7 hours ago

TLE from 7 hours ago
0 OBJECT AJ
1 69012U 26100AJ  26130.17790666  .00002557  00000-0  12045-3 0  9995
2 69012  97.4074  28.6837 0006117 150.4758 209.6824 15.20409567  1034
Epoch: 2026-05-10T04:16Z
TLE epoch observation values (Epoch: 2026-05-10T04:16:11.135Z)
Latitude
-0°
Longitude
96.65258°
Altitude
511.354 km
Speed
7.606 km/s
True Right ascension
01h 54m 44s
True Declination
0° 00' 00"
Sunlit
Object was in daylight at epoch
Visualization orbit readout
Latitude
Unknown
Longitude
Unknown
Altitude
Unknown
Speed
Unknown
Apparent Right ascension
Unknown
Apparent Declination
Unknown
Sunlit
N/A
Visualization observer readout
Local Sidereal Time
19:47:42
Azimuth
Unknown
Elevation
Unknown
Doppler factor
Unknown
Orbital elements
Apogee altitude
505.778 km
Perigee altitude
497.361 km
Semi-major axis
6,879.707 km
Eccentricity
0.00061
Inclination
97.4074°
RAAN
28.6837°
Arg. of periapsis
150.4758°
True anomaly
209.64771°
Mean anomaly
209.6824°
Eccentric anomaly
209.66505°
Mean motion
3.80354 °/min
Orbital period
94.65 mins
BSTAR
0.00012045
Loading maneuver chart data...
Computing Atmospheric mass density...
Loading historical data...
Loading historical data...
Loading historical data...
Loading historical data...
Loading historical data...
Loading historical data...
Loading historical data...

Documentation

Showing up to 5 results
|